Location: *
(39.6167°S, 171.5333°W)
Time: 21:24:09
(UTC+00:00)

Lacrosse 5 rocket - Pass Details

Date: 13 May 2021
Orbit: 458 x 636 km, 57.0° (Epoch: 15 June)

Event Time Altitude Azimuth Distance (km) Brightness Sun altitude
Exits shadow 16:14:41 60° 59° (ENE) 599 1.6 -24.6°
Drops below altitude 10° 16:17:53 10° 46° (NE) 1,703 4.5 -24.0°
Sets 16:19:58 0° 44° (NE) 2,554 5.5 -23.6°
